timestamp,surface_pressure_avg,surface_temp_avg,battery_voltage,lat,long
2019-08-12 00:00:00+00:00,286.1047,19.1,12.97,47.84626,-54.09684
2019-08-12 00:10:00+00:00,281.6597,19.1,12.89,47.84626,-54.09684
2019-08-12 00:20:00+00:00,278.4897,19.05,12.97,47.84626,-54.09684
2019-08-12 00:30:00+00:00,270.513,19.16,12.97,47.84626,-54.09684
2019-08-12 00:40:00+00:00,264.6647,19.18,12.97,47.84626,-54.09684
2019-08-12 00:50:00+00:00,262.4714,19.18,12.97,47.84626,-54.09684
2019-08-12 01:00:00+00:00,258.3364,19.19,12.97,47.84626,-54.09684
2019-08-12 01:10:00+00:00,250.9564,19.21,12.89,47.84626,-54.09684
2019-08-12 01:20:00+00:00,248.3881,19.26,12.97,47.84626,-54.09684
2019-08-12 01:30:00+00:00,246.5081,19.2,12.97,47.84626,-54.09684
2019-08-12 01:40:00+00:00,241.0914,19.2,12.97,47.84626,-54.09684
2019-08-12 01:50:00+00:00,238.5081,19.3,12.97,47.84626,-54.09684
2019-08-12 02:00:00+00:00,237.8714,19.2,12.97,47.84626,-54.09684
2019-08-12 02:10:00+00:00,234.9764,19.17,12.89,47.84626,-54.09684
2019-08-12 02:20:00+00:00,229.9947,19.29,12.97,47.84626,-54.09684
2019-08-12 02:30:00+00:00,227.9631,19.27,12.97,47.84626,-54.09684
2019-08-12 02:40:00+00:00,228.8647,19.2,12.97,47.84626,-54.09684
2019-08-12 02:50:00+00:00,228.2198,19.3,12.97,47.84626,-54.09684
2019-08-12 03:00:00+00:00,224.4931,19.36,12.89,47.84626,-54.09684
2019-08-12 03:10:00+00:00,223.0131,19.4,12.81,47.84626,-54.09684
2019-08-12 03:20:00+00:00,223.5098,19.38,12.97,47.84626,-54.09684
2019-08-12 03:30:00+00:00,222.3531,19.34,12.97,47.84626,-54.09684
2019-08-12 03:40:00+00:00,217.8631,19.39,12.97,47.84626,-54.09684
2019-08-12 03:50:00+00:00,219.1131,19.3,12.97,47.84626,-54.09684
2019-08-12 04:00:00+00:00,225.0265,19.2,12.89,47.84626,-54.09684
2019-08-12 04:10:00+00:00,223.1365,19.1,12.81,47.84626,-54.09684
2019-08-12 04:20:00+00:00,218.0631,19.1,12.89,47.84626,-54.09684
2019-08-12 04:30:00+00:00,219.6598,19.1,12.97,47.84626,-54.09684
2019-08-12 04:40:00+00:00,224.4498,19.1,12.97,47.84626,-54.09684
2019-08-12 04:50:00+00:00,226.1848,19.0,12.97,47.84626,-54.09684
2019-08-12 05:00:00+00:00,228.8215,19.01,12.89,47.84626,-54.09684
2019-08-12 05:10:00+00:00,232.1881,19.0,12.81,47.84626,-54.09684
2019-08-12 05:20:00+00:00,235.058,19.0,12.89,47.84626,-54.09684
2019-08-12 05:30:00+00:00,235.7148,19.01,12.89,47.84626,-54.09684
2019-08-12 05:40:00+00:00,239.1981,19.08,12.97,47.84626,-54.09684
2019-08-12 05:50:00+00:00,243.7997,19.0,12.97,47.84626,-54.09684
2019-08-12 06:00:00+00:00,246.3981,19.06,12.89,47.84626,-54.09684
2019-08-12 06:10:00+00:00,251.5381,19.03,12.81,47.84626,-54.09684
2019-08-12 06:20:00+00:00,257.0881,19.0,12.89,47.84626,-54.09684
2019-08-12 06:30:00+00:00,261.1764,19.0,12.89,47.84626,-54.09684
2019-08-12 06:40:00+00:00,264.1681,19.05,12.89,47.84626,-54.09684
2019-08-12 06:50:00+00:00,270.7515,19.1,12.89,47.84626,-54.09684
2019-08-12 07:00:00+00:00,275.368,19.1,12.81,47.84626,-54.09684
2019-08-12 07:10:00+00:00,280.0748,19.1,12.81,47.84626,-54.09684
2019-08-12 07:20:00+00:00,287.8796,19.1,12.89,47.84626,-54.09684
2019-08-12 07:30:00+00:00,293.8664,19.1,12.89,47.84626,-54.09684
2019-08-12 07:40:00+00:00,292.0797,19.1,12.89,47.84626,-54.09684
2019-08-12 07:50:00+00:00,292.5681,19.1,12.89,47.84626,-54.09684
2019-08-12 08:00:00+00:00,300.6114,18.8,12.81,47.84626,-54.09684
2019-08-12 08:10:00+00:00,306.0313,18.62,12.73,47.84626,-54.09684
2019-08-12 08:20:00+00:00,303.2764,18.7,12.81,47.84626,-54.09684
2019-08-12 08:30:00+00:00,308.6348,18.66,12.81,47.84626,-54.09684
2019-08-12 08:40:00+00:00,316.858,18.6,12.89,47.84626,-54.09684
2019-08-12 08:50:00+00:00,317.408,18.7,12.89,47.84626,-54.09684
2019-08-12 09:00:00+00:00,314.9797,18.69,12.81,47.84626,-54.09684
2019-08-12 09:10:00+00:00,321.0197,18.6,12.73,47.84626,-54.09684
2019-08-12 09:20:00+00:00,325.6346,18.62,12.81,47.84626,-54.09684
2019-08-12 09:30:00+00:00,323.6379,18.79,12.89,47.84626,-54.09684
2019-08-12 09:40:00+00:00,324.1163,18.6,13.05,47.84626,-54.09684
2019-08-12 09:50:00+00:00,327.903,18.6,13.21,47.84626,-54.09684
2019-08-12 10:00:00+00:00,325.903,18.78,13.37,47.84626,-54.09684
2019-08-12 10:10:00+00:00,321.9163,18.8,13.44,47.84626,-54.09684
2019-08-12 10:20:00+00:00,321.2663,18.6,13.68,47.84626,-54.09684
2019-08-12 10:30:00+00:00,322.0314,18.71,13.84,47.84626,-54.09684
2019-08-12 10:40:00+00:00,314.8496,18.88,14.0,47.84626,-54.09684
2019-08-12 10:50:00+00:00,309.4863,18.69,14.0,47.84626,-54.09684
2019-08-12 11:00:00+00:00,309.2463,18.69,14.08,47.84626,-54.09684
2019-08-12 11:10:00+00:00,308.1946,18.82,14.16,47.84626,-54.09684
2019-08-12 11:20:00+00:00,302.518,18.9,14.56,47.84626,-54.09684
2019-08-12 11:30:00+00:00,299.8347,18.7,14.64,47.84626,-54.09684
2019-08-12 11:40:00+00:00,296.563,18.72,14.48,47.84626,-54.09684
2019-08-12 11:50:00+00:00,291.2496,18.86,14.64,47.84626,-54.09684
2019-08-12 12:00:00+00:00,283.048,18.9,14.4,47.84626,-54.09684
2019-08-12 12:10:00+00:00,277.9864,18.7,14.48,47.84626,-54.09684
2019-08-12 12:20:00+00:00,277.5347,18.7,14.64,47.84626,-54.09684
2019-08-12 12:30:00+00:00,271.1548,18.79,14.56,47.84626,-54.09684
2019-08-12 12:40:00+00:00,260.5581,18.9,14.4,47.84626,-54.09684
2019-08-12 12:50:00+00:00,254.3681,18.88,14.64,47.84626,-54.09684
2019-08-12 13:00:00+00:00,251.2698,18.66,14.56,47.84626,-54.09684
2019-08-12 13:10:00+00:00,244.7298,18.69,14.48,47.84626,-54.09684
2019-08-12 13:20:00+00:00,237.6881,18.7,14.64,47.84626,-54.09684
2019-08-12 13:30:00+00:00,236.4431,18.7,14.56,47.84626,-54.09684
2019-08-12 13:40:00+00:00,233.5098,18.7,14.56,47.84626,-54.09684
2019-08-12 13:50:00+00:00,227.5898,18.7,14.48,47.84626,-54.09684
2019-08-12 14:00:00+00:00,219.5664,18.7,14.48,47.84626,-54.09684
2019-08-12 14:10:00+00:00,216.7047,18.7,14.48,47.84626,-54.09684
2019-08-12 14:20:00+00:00,219.0547,18.7,14.48,47.84626,-54.09684
2019-08-12 14:30:00+00:00,216.6398,18.7,14.32,47.84626,-54.09684
2019-08-12 14:40:00+00:00,210.6081,18.7,14.4,47.84626,-54.09684
2019-08-12 14:50:00+00:00,210.7365,18.7,14.48,47.84626,-54.09684
2019-08-12 15:00:00+00:00,214.4948,18.66,14.4,47.84626,-54.09684
2019-08-12 15:10:00+00:00,210.8964,18.66,14.4,47.84626,-54.09684
2019-08-12 15:20:00+00:00,210.8098,18.69,14.48,47.84626,-54.09684
2019-08-12 15:30:00+00:00,216.8348,18.69,14.4,47.84626,-54.09684
2019-08-12 15:40:00+00:00,216.6664,18.7,14.4,47.84626,-54.09684
2019-08-12 15:50:00+00:00,210.7298,18.7,14.4,47.84626,-54.09684
2019-08-12 16:00:00+00:00,212.3864,18.69,14.32,47.84626,-54.09684
2019-08-12 16:10:00+00:00,217.4681,18.6,14.24,47.84626,-54.09684
2019-08-12 16:20:00+00:00,214.4881,18.6,14.32,47.84626,-54.09684
2019-08-12 16:30:00+00:00,214.4248,18.69,14.32,47.84626,-54.09684
2019-08-12 16:40:00+00:00,221.5565,18.69,14.32,47.84626,-54.09684
2019-08-12 16:50:00+00:00,226.3548,18.5,14.32,47.84626,-54.09684
2019-08-12 17:00:00+00:00,227.0331,18.55,14.24,47.84626,-54.09684
2019-08-12 17:10:00+00:00,231.9314,18.62,14.16,47.84626,-54.09684
2019-08-12 17:20:00+00:00,238.8698,18.69,14.24,47.84626,-54.09684
2019-08-12 17:30:00+00:00,242.3214,18.82,14.16,47.84626,-54.09684
2019-08-12 17:40:00+00:00,246.2564,18.96,14.16,47.84626,-54.09684
2019-08-12 17:50:00+00:00,250.8431,19.01,14.16,47.84626,-54.09684
2019-08-12 18:00:00+00:00,253.8147,19.18,14.08,47.84626,-54.09684
2019-08-12 18:10:00+00:00,257.5081,19.26,13.92,47.84626,-54.09684
2019-08-12 18:20:00+00:00,264.5447,19.09,14.0,47.84626,-54.09684
2019-08-12 18:30:00+00:00,269.8531,19.24,14.0,47.84626,-54.09684
2019-08-12 18:40:00+00:00,272.8831,19.2,13.92,47.84626,-54.09684
2019-08-12 18:50:00+00:00,280.178,18.8,13.92,47.84626,-54.09684
2019-08-12 19:00:00+00:00,285.1863,18.8,13.84,47.84626,-54.09684
2019-08-12 19:10:00+00:00,290.7114,18.8,13.76,47.84626,-54.09684
2019-08-12 19:20:00+00:00,295.6297,18.88,13.84,47.84626,-54.09684
2019-08-12 19:30:00+00:00,303.0697,18.9,13.84,47.84626,-54.09684
2019-08-12 19:40:00+00:00,310.3046,18.85,13.84,47.84626,-54.09684
2019-08-12 19:50:00+00:00,315.2147,18.84,13.84,47.84626,-54.09684
2019-08-12 20:00:00+00:00,317.2264,18.87,13.76,47.84626,-54.09684
2019-08-12 20:10:00+00:00,322.503,18.81,13.68,47.84626,-54.09684
2019-08-12 20:20:00+00:00,331.9714,18.85,13.68,47.84626,-54.09684
2019-08-12 20:30:00+00:00,334.9163,18.83,13.68,47.84626,-54.09684
2019-08-12 20:40:00+00:00,336.3613,18.8,13.76,47.84626,-54.09684
2019-08-12 20:50:00+00:00,344.2546,18.7,13.76,47.84626,-54.09684
2019-08-12 21:00:00+00:00,349.8663,18.79,13.68,47.84626,-54.09684
2019-08-12 21:10:00+00:00,349.2229,18.82,13.53,47.84626,-54.09684
2019-08-12 21:20:00+00:00,349.2746,18.89,13.6,47.84626,-54.09684
2019-08-12 21:30:00+00:00,354.5129,18.89,13.6,47.84626,-54.09684
2019-08-12 21:40:00+00:00,355.9646,18.89,13.6,47.84626,-54.09684
2019-08-12 21:50:00+00:00,353.6913,18.89,13.6,47.84626,-54.09684
2019-08-12 22:00:00+00:00,356.6829,18.87,13.53,47.84626,-54.09684
2019-08-12 22:10:00+00:00,359.3329,18.86,13.37,47.84626,-54.09684
2019-08-12 22:20:00+00:00,359.2762,18.84,13.37,47.84626,-54.09684
2019-08-12 22:30:00+00:00,358.2579,18.85,13.29,47.84626,-54.09684
2019-08-12 22:40:00+00:00,361.8629,18.83,13.29,47.84626,-54.09684
2019-08-12 22:50:00+00:00,358.6846,18.82,13.29,47.84626,-54.09684
2019-08-12 23:00:00+00:00,352.7531,18.86,13.21,47.84626,-54.09684
2019-08-12 23:10:00+00:00,351.0096,18.89,13.05,47.84626,-54.09684
2019-08-12 23:20:00+00:00,348.4329,18.88,13.05,47.84626,-54.09684
2019-08-12 23:30:00+00:00,343.918,18.88,13.05,47.84626,-54.09684
2019-08-12 23:40:00+00:00,340.5896,18.89,13.05,47.84626,-54.09684
2019-08-12 23:50:00+00:00,331.5163,18.9,13.05,47.84626,-54.09684
